Weather History for Hollywood, FL

Change the Weather History Date:

Sunday, December 30, 2012

  Actual Average (KFLL) Record (KFLL)
Temperature  
Mean Temperature 60 °F 69 °F  
Max Temperature 69 °F 76 °F 85 °F (1924)
Min Temperature 51 °F 62 °F 34 °F (1919)
Degree Days  
Heating Degree Days 5 2  
Month to date heating degree days 26  
Since 1 July heating degree days 28  
Cooling Degree Days 0 6  
Month to date cooling degree days 212  
Year to date cooling degree days 4725  
Growing Degree Days 10 (Base 50)    
Moisture  
Dew Point 50 °F    
Average Humidity 69    
Maximum Humidity 90    
Minimum Humidity 52    
Precipitation  
Precipitation 0.00 in 0.06 in 0.72 in (1983)
Month to date precipitation 2.40  
Year to date precipitation 62.12  
Snow  
Snow 0.00 in - - ()
Month to date snowfall  
Since 1 July snowfall  
Snow Depth -    
Sea Level Pressure  
Sea Level Pressure 30.24 in    
Wind  
Wind Speed 13 mph (North)    
Max Wind Speed 16 mph    
Max Gust Speed 25 mph    
Visibility 10 miles    
Events      
T = Trace of Precipitation, MM = Missing Value Source: NWS Daily Summary

Daily Weather History Graph

Daily Weather History Graph

Search for Another Location

Airport:

Trip Planner

Search our weather history database for the weather conditions in past years. The results will help you decide how hot, cold, wet, or windy it might be!

Date:

Astronomy

Dec. 30, 2012 Rise Set
Actual Time 7:07 AM EST 5:40 PM EST
Civil Twilight 6:42 AM EST 6:05 PM EST
Nautical Twilight 6:13 AM EST 6:33 PM EST
Astronomical Twilight 5:45 AM EST 7:02 PM EST
Moon 7:54 PM EST (12/30) 8:28 AM EST (12/30)
Length of Visible Light 11h 22m
Length of Day
10h 32m
Waning Gibbous, 95% of the Moon is Illuminated
Dec 30
Waning Gibbous
Jan 4
Last Quarter
Jan 11
New
Jan 18
First Quarter
Jan 26
Full

Hourly Weather History & Observations

Time (EST) Temp. Dew Point Humidity Pressure Visibility Wind Dir Wind Speed Gust Speed Precip Events Conditions
12:53 AM 59.0 °F 52.0 °F 78% 30.15 in 10.0 mi NW 16.1 mph - N/A   Clear
1:53 AM 57.0 °F 52.0 °F 83% 30.17 in 10.0 mi NW 11.5 mph - N/A   Scattered Clouds
2:12 AM 55.4 °F 51.8 °F 88% 30.17 in 10.0 mi NW 11.5 mph - N/A   Mostly Cloudy
2:28 AM 55.4 °F 51.8 °F 88% 30.17 in 10.0 mi NW 9.2 mph - N/A   Scattered Clouds
2:53 AM 55.0 °F 51.1 °F 86% 30.17 in 10.0 mi NW 9.2 mph - N/A   Partly Cloudy
3:53 AM 54.0 °F 51.1 °F 90% 30.18 in 10.0 mi NW 5.8 mph - N/A   Clear
4:53 AM 54.0 °F 50.0 °F 86% 30.19 in 10.0 mi NNW 9.2 mph - N/A   Clear
5:53 AM 53.1 °F 48.0 °F 83% 30.21 in 10.0 mi NNW 11.5 mph - N/A   Clear
6:53 AM 51.1 °F 44.1 °F 77% 30.24 in 10.0 mi NNW 15.0 mph 23.0 mph N/A   Clear
7:53 AM 52.0 °F 44.1 °F 74% 30.25 in 10.0 mi NNW 13.8 mph 19.6 mph N/A   Clear
8:53 AM 54.0 °F 46.0 °F 75% 30.28 in 10.0 mi North 15.0 mph - N/A   Clear
9:53 AM 57.0 °F 46.0 °F 67% 30.30 in 10.0 mi NNW 15.0 mph - N/A   Clear
10:53 AM 59.0 °F 46.9 °F 64% 30.29 in 10.0 mi North 11.5 mph - N/A   Clear
11:53 AM 63.0 °F 48.0 °F 58% 30.28 in 10.0 mi North 13.8 mph - N/A   Clear
12:53 PM 68.0 °F 50.0 °F 52% 30.25 in 10.0 mi North 13.8 mph 20.7 mph N/A   Clear
1:53 PM 69.1 °F 51.1 °F 53% 30.24 in 10.0 mi NNE 15.0 mph 24.2 mph N/A   Overcast
2:53 PM 68.0 °F 52.0 °F 56% 30.24 in 10.0 mi North 15.0 mph 25.3 mph N/A   Overcast
3:53 PM 69.1 °F 53.1 °F 57% 30.25 in 10.0 mi NNE 16.1 mph 25.3 mph N/A   Overcast
4:53 PM 68.0 °F 53.1 °F 59% 30.26 in 10.0 mi NNE 12.7 mph 24.2 mph N/A   Overcast
5:53 PM 66.9 °F 52.0 °F 59% 30.27 in 10.0 mi NNE 15.0 mph 20.7 mph N/A   Overcast
6:53 PM 66.9 °F 52.0 °F 59% 30.28 in 10.0 mi NNE 13.8 mph 23.0 mph N/A   Mostly Cloudy
7:53 PM 66.9 °F 52.0 °F 59% 30.29 in 10.0 mi NNE 13.8 mph 18.4 mph N/A   Overcast
8:53 PM 66.9 °F 52.0 °F 59% 30.30 in 10.0 mi NE 11.5 mph - N/A   Mostly Cloudy
9:53 PM 66.0 °F 52.0 °F 60% 30.30 in 10.0 mi ENE 12.7 mph - N/A   Scattered Clouds
10:53 PM 66.9 °F 54.0 °F 63% 30.30 in 10.0 mi ENE 16.1 mph 23.0 mph N/A   Mostly Cloudy
11:53 PM 64.9 °F 53.1 °F 65% 30.29 in 10.0 mi East 12.7 mph - N/A   Mostly Cloudy